Tracking 30510 objects as of 22-May-2025
HD Live streaming from Space Station
objects crossing your sky now

CZ-3A DEB

Track CZ-3A DEB now!
10-day predictions


NORAD ID: 35547
Int'l Code: 2007-003F
Perigee: 282.2 km
Apogee: 5,025.0 km
Inclination: 24.5 °
Period: 142.2 minutes
Semi major axis: 9024 km
RCS: 0.0399 m2 (small)
Launch date: February 2, 2007
Source: People's Republic of China (PRC)
Launch site: Xichang Space Center, China (XSC)

Note: This is SATELLITE DEBRIS
Your satellite tracking list
Your tracking list is empty




NASA's NSSDC Master Catalog

Two Line Element Set (TLE):
1 35547U 07003F   25142.40754742  .00441095  12051-4  15995-1 0  9997
2 35547  24.5425  57.1024 2627725   8.6585 355.1393 10.12653934288023
Source of the keplerian elements: AFSPC